Regional Weather Roundup
Issued by NWS

Home | Current Version | Previous Version | Graphics & Text | Print | Product List | Glossary On
Versions: 1 2 3 4 5 6 7 8 9 10 11 12 13 14 15 16 17 18 19 20 21 22 23 24 25 26 27 28 29 30 31 32 33 34 35 36 37 38 39 40 41 42 43 44 45 46 47 48 49 50
000
ASUS43 KDMX 021607
RWRIA

WEATHER ROUNDUP FOR IOWA
NATIONAL WEATHER SERVICE DES MOINES IA
1100 AM CDT TUE JUN 02 2015

NOTE: "FAIR" INDICATES FEW OR NO CLOUDS BELOW 12,000 FEET WITH NO
SIGNIFICANT WEATHER AND/OR OBSTRUCTIONS TO VISIBILITY.

* - THESE STATIONS ARE NOT NWS STATIONS...THUS NOT UNDER NWS
QUALITY CONTROL.  THEY ALSO DO NOT REPORT WEATHER SUCH
AS PRECIPITATION OR FOG.

IAZ001>003-012>014-020>022-031>034-043>046-021700-
   NORTHWEST IOWA

CITY           SKY/WX    TMP DP  RH WIND       PRES   REMARKS
CARROLL *      CLOUDY    61  55  82 S16G24    30.04F
CHEROKEE *     SUNNY     66  55  68 S16G22    29.99F
DENISON *      SUNNY     64  55  72 S15G25    30.00S
LE MARS *      MOSUNNY   70  57  64 S15G24    29.97S
ORANGE CITY *  SUNNY     66  55  68 S17G25    29.96F
SHELDON *      SUNNY     70  52  52 S23       29.96F
SIOUX CITY     PTSUNNY   67  54  63 S17       29.98S
SPENCER        SUNNY     69  55  60 S22       30.00F
$$

IAZ055>058-069>071-079>083-090>094-021700-
   SOUTHWEST IOWA

CITY           SKY/WX    TMP DP  RH WIND       PRES   REMARKS
ATLANTIC *     MOSUNNY   64  54  68 S13       30.03F
AUDUBON *      PTSUNNY   61  55  82 S10G16    30.05F
CLARINDA *     MOSUNNY   66  55  68 S10G21    30.05F
COUNCIL BLFS * SUNNY     66  59  77 S20G25    30.02S
CRESTON *      CLOUDY    61  55  82 S16       30.07S
HARLAN  *      SUNNY     64  57  77 SE16G22   30.04F
LAMONI         CLOUDY    63  54  72 SE12      30.09F
RED OAK *      SUNNY     66  55  68 S13G20    30.03F
SHENANDOAH *   SUNNY     68  55  64 S16G22    30.04S
$$

IAZ047>049-059>061-072>074-084-021700-
   CENTRAL IOWA

CITY           SKY/WX    TMP DP  RH WIND       PRES   REMARKS
AMES           CLOUDY    64  53  67 S16       30.07F
ANKENY *       CLOUDY    64  55  72 S15G22    30.07F
CHARITON *     CLOUDY    63  55  77 S14       30.10F
DES MOINES     CLOUDY    63  53  70 S15       30.08F
GRINNELL*      CLOUDY    63  54  72 SE15      30.11F
KNOXVILLE *    CLOUDY    64  54  68 SE14G20   30.08F
MARSHALLTOWN   CLOUDY    64  54  69 S15       30.09F
PELLA *        PTSUNNY   66  57  72 SE13      30.11F
PERRY *        CLOUDY    59  54  82 S14       30.07S
$$

IAZ004>006-015-016-023>025-035-036-021700-
   NORTH CENTRAL IOWA

CITY           SKY/WX    TMP DP  RH WIND       PRES   REMARKS
ALGONA *       PTSUNNY   66  55  68 S23       30.04S
CLARION *      MOSUNNY   66  52  59 S22G28    30.06S
ESTHERVILLE    SUNNY     65  54  67 S24G32    30.01F
FORT DODGE *   CLOUDY    64  54  68 S15G22    30.06F
MASON CITY     PTSUNNY   67  54  63 S21       30.08F
FOREST CITY *  MOSUNNY   64  54  68 S18G24    30.06S
IOWA FALLS *   CLOUDY    66  54  63 SE20      30.09S
$$

IAZ007>011-017>019-026>030-037>042-050>054-066-021700-
   NORTHEAST IOWA

CITY           SKY/WX    TMP DP  RH WIND       PRES   REMARKS
CEDAR RAPIDS   PTSUNNY   66  56  70 SE8       30.12F
CHARLES CITY * CLOUDY    66  55  68 S18       30.09F
CLINTON *      SUNNY     64  50  59 SW3       30.17F
DECORAH *      MOSUNNY   64  54  68 S9        30.11F
DUBUQUE        MOSUNNY   63  52  67 CALM      30.15F
MONTICELLO *   MOSUNNY   64  54  68 SE8       30.13F
OELWEIN *      PTSUNNY   66  54  63 S12       30.12F
WATERLOO       PTSUNNY   66  54  65 S12       30.09F
$$

IAZ064-065-067-068-078-021700-
   EAST CENTRAL IOWA

CITY           SKY/WX    TMP DP  RH WIND       PRES   REMARKS
DAVENPORT      MOSUNNY   66  49  54 S7        30.14F
IOWA CITY      MOSUNNY   67  54  63 SE10      30.13F HAZE
MT. PLEASANT * MOSUNNY   66  50  55 SE8       30.13F
MUSCATINE *    MOSUNNY   68  52  56 S12       30.13F
QUAD CITIES    MOSUNNY   67  51  56 E7        30.13F
$$

IAZ062-063-075>077-085>089-095>099-021700-
   SOUTHEAST IOWA

CITY           SKY/WX    TMP DP  RH WIND       PRES   REMARKS
BURLINGTON     MOSUNNY   66  55  67 S5        30.13F
FAIRFIELD *    MOSUNNY   66  54  63 SE9       30.13F
FORT MADISON *   N/A     64  57  77 SE3       30.14F
KEOKUK *       MOSUNNY   66  59  77 SE7       30.13S
OSKALOOSA *    PTSUNNY   66  54  63 SE14      30.11F
CENTERVILLE *  MOSUNNY   64  64 100 SE12      30.12F
OTTUMWA          N/A     65  54  67 SE12      30.11F
WASHINGTON *   PTSUNNY   70  54  56 SE14      30.13F
$$

ABBREVIATIONS USED IN REMARKS
   TC - TEMPERATURES IN CELSIUS
  WCI - WIND CHILL INDEX
   HX - HEAT INDEX
  VSB - VISIBILITY
$$



USA.gov is the U.S. government's official web portal to all federal, state and local government web resources and services.